Hourly Weather Roundup
Issued by NWS Central Illinois

Home | Current Version | Previous Version | Graphics & Text | Print | Product List | Glossary On
Versions: 1 2 3 4 5 6 7 8 9 10 11 12 13 14 15 16 17 18 19 20 21 22 23 24 25 26 27 28 29 30 31 32 33 34 35 36 37 38 39 40 41 42 43 44 45 46 47 48 49 50
440
NZUS43 KILX 122310
HWRILX

AREA WEATHER ROUNDUP
NATIONAL WEATHER SERVICE, LINCOLN IL
500 PM CST FRI FEB 12 2016


CITY           SKY/WX    TMP DP  RH WIND       PRES   REMARKS
BLOOMINGTON    CLEAR     24   4  42 NW24G32   30.28R WCI   8
CHAMPAIGN      CLEAR     25   9  50 NW23G32   30.26R WCI  10
DANVILLE       CLEAR     24  11  59 NW17      30.21R WCI  10
DECATUR        PTCLDY    27  10  49 NW16G28   30.29R WCI  15
EFFINGHAM      PTCLDY    27  17  67 W22       30.33R WCI  12
FLORA          PTCLDY    29  17  60 NW17      30.33R WCI  17
GALESBURG      CLEAR     20   2  44 NW15      30.36R WCI   6
JACKSONVILLE   PTCLDY    28  15  59 NW20      30.37R WCI  14
LACON          PTCLDY    22   3  43 W20G29    30.32R WCI   7
LAWRENCEVILLE  CLOUDY    28  17  63 NW17      30.29R WCI  16
LITCHFIELD     MOCLDY    26  14  60 NW22G28   30.36R WCI  11
$$


CITY           SKY/WX    TMP DP  RH WIND       PRES   REMARKS
LINCOLN        CLEAR     27  10  49 NW14G22   30.31R WCI  16
MACOMB         CLEAR     23   5  46 NW21G28   30.40R WCI   8
MATTOON        MOCLDY    25  14  63 NW21      30.27R WCI  11
MT CARMEL AP   CLOUDY    30  18  59 NW18G28   30.30R WCI  18
OLNEY-NOBLE AP CLOUDY    28  19  69 NW15G23   30.32R WCI  17
PARIS          MOCLDY    25  15  63 NW14G21   30.26R WCI  14
PEORIA         CLEAR     23  -2  33 NW13G28   30.34R WCI  11
PONTIAC        PTCLDY    24   7  48 NW22G30   30.28R WCI   9
RANTOUL        PTCLDY    27  10  50 NW20G26   30.25R WCI  13
ROBINSON       MOCLDY    27  16  62 NW16G25   30.30R WCI  15
SPRINGFIELD    CLEAR     27  12  53 NW18G26   30.34R WCI  14
TAYLORVILLE    MOCLDY    27  14  59 NW16G28   30.33R WCI  14
$$

...REGIONAL REPORTS...


CITY           SKY/WX    TMP DP  RH WIND       PRES   REMARKS
CHICAGO O`HARE PTCLDY    19  -3  38 NW26G35   30.22R WCI   1
KANKAKEE       MOCLDY    22   7  50 NW15      30.25R WCI   9
MOLINE         CLEAR     19   0  43 NW20G29   30.38R WCI   3
MOUNT STERLING CLEAR     23  10  58 NW20G30   30.38R WCI   8
MOUNT VERNON   CLOUDY    28  16  59 NW10G17   30.35R WCI  19
PITTSFIELD     PTCLDY    25  13  60 NW14G20   30.41R WCI  14
QUINCY         CLEAR     22   8  55 NW21      30.41R WCI   6
ROCKFORD       PTCLDY    19   1  45 NW22G28   30.29R WCI   2
$$


CITY           SKY/WX    TMP DP  RH WIND       PRES   REMARKS
BURLINGTON     CLEAR     21   3  45 NW13G28   30.40R WCI   9
CEDAR RAPIDS   CLEAR     14   1  56 NW24      30.42R WCI  -5
DES MOINES     PTCLDY    15   0  51 NW15      30.52R WCI   0
KIRKSVILLE     CLEAR     22   2  42 NW13G22   30.46R WCI  10
OTTUMWA        CLEAR     16   3  56 NW22G29   30.47R WCI  -2
ST LOUIS       PTCLDY    30  16  56 NW14      30.38R WCI  19
$$


CITY           SKY/WX    TMP DP  RH WIND       PRES   REMARKS
TERRE HAUTE    MOCLDY    25  12  58 NW15G22   30.25R WCI  13
EVANSVILLE     CLOUDY    31  18  58 NW12G28   30.30R WCI  22
INDIANAPOLIS   MOCLDY    23  10  57 W23G31    30.18R WCI   7
LAFAYETTE      PTCLDY    23   4  44 NW22G35   30.20R WCI   8
MADISON        PTCLDY    12  -6  44 NW14G24   30.29R WCI  -3
MILWAUKEE      PTCLDY    14  -5  42 NW17G28   30.24R WCI  -3
$$






USA.gov is the U.S. government's official web portal to all federal, state and local government web resources and services.